Regional Weather Roundup
Issued by NWS

Home | Current Version | Previous Version | Text Only | Print | Product List | Glossary Off
Versions: 1 2 3 4 5 6 7 8 9 10 11 12 13 14 15 16 17 18 19 20 21 22 23 24 25 26 27 28 29 30 31 32 33 34 35 36 37 38 39 40 41 42 43 44 45 46 47 48 49 50

000
ASUS43 KMKX 271400
RWRWI

WISCONSIN REGIONAL WEATHER ROUNDUP
NATIONAL WEATHER SERVICE MILWAUKEE/SULLIVAN WI
900 AM CDT MON MAR 27 2017

NOTE: "FAIR" INDICATES FEW OR NO CLOUDS BELOW 12,000 FEET WITH NO
SIGNIFICANT WEATHER AND/OR OBSTRUCTIONS TO VISIBILITY.

WIZ001-002-006>008-014>016-023>028-271500-
NORTHWEST WISCONSIN

CITY           SKY/WX    TMP DP  RH WIND       PRES   REMARKS
SUPERIOR ARPT  CLOUDY    32  32 100 SW3       29.97S FOG
ASHLAND        CLOUDY    34  33  96 S5        29.97S FOG     WCI  30
HAYWARD        CLOUDY    36  32  85 N3        29.95S
SIREN          FOG       33  33  99 CALM      29.98R VSB 1/4
CUMBERLAND     CLOUDY    34  32  93 CALM      29.96R
RICE LAKE      DRIZZLE   35  35  98 CALM      29.98R
CHETEK         CLOUDY    35  35  99 CALM      29.95F
LADYSMITH      CLOUDY    35  34  96 N3        29.96F
EAU CLAIRE     CLOUDY    38  35  89 N5        29.94S WCI  34
MENOMONIE      CLOUDY    38  35  92 NW7       29.95F WCI  32
NEW RICHMOND   CLOUDY    36  36 100 N5        29.97S WCI  32
OSCEOLA        CLOUDY    36  36 100 CALM      30.00S
$$

WIZ003>005-009-010-017-018-271500-
NORTH CENTRAL WISCONSIN

CITY           SKY/WX    TMP DP  RH WIND       PRES   REMARKS
MANITOWISH WTR CLOUDY    32  32 100 NW3       29.92R
ARBOR VITAE    CLOUDY    34  33  96 N3        29.91R
WOODRUFF       CLOUDY    34  33  96 N3        29.91R
RHINELANDER    CLOUDY    35  34  96 VRB3      29.92S
EAGLE RIVER    CLOUDY    32  32 100 N5        29.91S WCI  28
LAND O LAKES   CLOUDY    32  32 100 N3        29.93R FOG
PHILLIPS       CLOUDY    32  32 100 NE3       29.93R
TOMAHAWK       DRIZZLE   32  32  99 CALM      29.94R
MEDFORD        CLOUDY    33  32  95 N5        29.92S WCI  29
MERRILL        CLOUDY    34  34  99 N5        29.93S WCI  30
$$

WIZ029-030-035-036-043>047-271500-
CENTRAL WISCONSIN

CITY           SKY/WX    TMP DP  RH WIND       PRES   REMARKS
WAUSAU         CLOUDY    36  33  89 N3        29.91S
MOSINEE        CLOUDY    36  36 100 CALM      29.93S
MARSHFIELD     CLOUDY    37  34  89 NE6       29.91S WCI  32
STEVENS POINT  CLOUDY    36  36 100 N3        29.93F
WAUPACA        CLOUDY    41  40  97 CALM      29.94S
WAUTOMA        CLOUDY    40  39  97 CALM      29.94S
WISC RAPIDS    CLOUDY    40  38  93 NE3       29.94S
CAMP DOUGLAS   CLOUDY    41  41 100 W5        29.94R
$$

WIZ011>013-019>022-031-037>040-048>050-271500-
NORTHEAST WISCONSIN

CITY           SKY/WX    TMP DP  RH WIND       PRES   REMARKS
ANTIGO         CLOUDY    35  34  97 N6        29.91F WCI  30
SHAWANO        CLOUDY    40  37  91 CALM      29.93F
OCONTO         CLOUDY    38  35  91 N6        29.93R WCI  33
STURGEON BAY   CLOUDY    36  35  96 N9        29.95R WCI  29
GREEN BAY      CLOUDY    40  39  97 NE7       29.93S
MANITOWOC      NOT AVBL
APPLETON       CLOUDY    37  37 100 N6        29.92R WCI  33
CLINTONVILLE   CLOUDY    37  36  93 N3        29.93S
OSHKOSH        CLOUDY    40  38  93 N6        29.94R
$$

WIZ032>034-041-042-053>061-271500-
SOUTHWEST WISCONSIN

CITY           SKY/WX    TMP DP  RH WIND       PRES   REMARKS
LA CROSSE      FOG       42  41  96 NW3       29.94S VSB 1
SPARTA         CLOUDY    39  39 100 CALM      29.95S FOG
VIROQUA        CLOUDY    40  40 100 CALM      29.93S
BOSCOBEL       CLOUDY    44  41  89 CALM      29.94S
PRAIRIE DU CHI CLOUDY    42  40  94 NW3       29.94F FOG
PLATTEVILLE    CLOUDY    42  42 100 N3        29.93F
$$

WIZ056-057-062-063-064-067-068-271500-
SOUTH CENTRAL WISCONSIN

CITY           SKY/WX    TMP DP  RH WIND       PRES   REMARKS
REEDSBURG      CLOUDY    40  40 100 CALM      29.94S
BARABOO/DELLS  CLOUDY    40  39  97 CALM      29.94S FOG
LONE ROCK      CLOUDY    43  39  86 N3        29.94F FOG
MINERAL POINT  CLOUDY    43  43 100 N5        29.92F
MADISON        CLOUDY    42  39  89 NW6       29.94S
MIDDLETON      CLOUDY    43  43 100 NW6       29.94S
WATERTOWN      CLOUDY    40  40 100 CALM      29.94R
MONROE         CLOUDY    41  41 100 N5        29.93S FOG
JANESVILLE     CLOUDY    45  43  93 CALM      29.94S
$$

WIZ051-052-058>065-066-070>072-271500-
SOUTHEAST WISCONSIN

CITY           SKY/WX    TMP DP  RH WIND       PRES   REMARKS
MILWAUKEE      CLOUDY    44  40  85 W3        29.94S
WAUKESHA       CLOUDY    39  39 100 NW3       29.95R FOG
MILWAUKEE/TIMM CLOUDY    41  37  87 NW3       29.95R FOG
RACINE         CLOUDY    43  39  86 NW3       29.97R
KENOSHA        CLOUDY    44  40  85 CALM      29.95R
FOND DU LAC    CLOUDY    41  38  89 CALM      29.94R
SHEBOYGAN      CLOUDY    40  37  89 W3        29.95R
WEST BEND      CLOUDY    39  39 100 W3        29.94R
JUNEAU         CLOUDY    39  38  99 CALM      29.95S FOG
$$

LSZ147-162-271500-
LAKE SUPERIOR

STATION/POSITION TIME  TEMP    WIND        PRES    WAVE
                       AIR SEA DIR/SP/G            HT/PER
                 (UTC) (F)     (DEG/KT/KT) (MB)    (FT/S)
DEVILS ISLAND    1300   33     220/  8/  9 1015.3R
PORT WING        1240   33     230/  3/  5 1015.2R
SAXON HARBOR     1240   33      CALM  /  1 1014.2F
$$

LMZ867-665-643>646-271500-
LAKE MICHIGAN

STATION/POSITION TIME  TEMP    WIND        PRES    WAVE
                       AIR SEA DIR/SP/G            HT/PER
                 (UTC) (F)     (DEG/KT/KT) (MB)    (FT/S)
CHAMBERS ISLAND  1240   34     310/  4/  5 1012.9F
NORTHPORT PIER   1240   34     300/  7/ 12 1013.2S
KEWAUNEE LAKESHO 1330   37     350/  7/  9 1013.4R
SHEBOYGAN LAKESH 1300   38        CALM     1014.0R
PORT WASHINGTON  1240   41     340/  2/  4 1014.2R
MILWAUKEE LAKESH 1330   42     330/  2/  2   N/A
KENOSHA   LAKESH 1300   43      CALM  /  1 1014.2
$$

TC  - TEMPERATURE IN CELSIUS
VSB - VISIBILITY IN STATUTE MILES
WCI - WIND CHILL INDEX
HX  - HEAT INDEX




USA.gov is the U.S. government's official web portal to all federal, state and local government web resources and services.